Location: Karcze
(52.0945°N, 22.4786°E)
Time: 20:28:59
(UTC+00:00)

Transit 2A Rocket - Pass Details

Date: 01 August 2021
Orbit: 586 x 917 km, 66.7° (Epoch: 27 September)

Event Time Altitude Azimuth Distance (km) Brightness Sun altitude
Rises 15:36:16 0° 279° (W) 2,971 9.5 23.2°
Reaches altitude 10° 15:39:06 10° 297° (WNW) 2,118 8.6 22.7°
Maximum altitude 15:42:32 19° 343° (NNW) 1,662 7.1 22.2°
Drops below altitude 10° 15:46:12 10° 28° (NNE) 2,275 7.3 21.6°
Sets 15:49:23 0° 46° (NE) 3,274 7.9 21.2°
